TimePST,TemperatureF,Dew PointF,Humidity,Sea Level PressureIn,VisibilityMPH,Wind Direction,Wind SpeedMPH,Gust SpeedMPH,PrecipitationIn,Events,Conditions,WindDirDegrees,DateUTC
12:53 AM,46.0,41.0,83,30.26,10.0,Calm,Calm,-,0.00,Rain,Light Rain,0,2013-02-28 08:53:00
1:53 AM,45.0,41.0,86,30.25,10.0,Calm,Calm,-,0.03,Rain,Light Rain,0,2013-02-28 09:53:00
2:53 AM,45.0,42.1,90,30.24,7.0,Calm,Calm,-,0.04,Rain,Light Rain,0,2013-02-28 10:53:00
3:53 AM,45.0,41.0,86,30.23,10.0,Calm,Calm,-,0.02,Rain,Light Rain,0,2013-02-28 11:53:00
4:35 AM,44.6,42.8,93,30.22,7.0,Calm,Calm,-,0.03,Rain,Light Rain,0,2013-02-28 12:35:00
4:53 AM,45.0,42.1,90,30.22,9.0,Calm,Calm,-,0.04,Rain,Light Rain,0,2013-02-28 12:53:00
5:53 AM,44.6,42.8,93,30.21,9.0,Calm,Calm,-,N/A,,Overcast,0,2013-02-28 13:53:00
6:53 AM,45.0,41.0,86,30.21,10.0,Calm,Calm,-,0.01,,Overcast,0,2013-02-28 14:53:00
7:53 AM,45.0,42.1,90,30.20,6.0,Calm,Calm,-,0.01,Rain,Light Rain,0,2013-02-28 15:53:00
8:53 AM,46.0,42.1,86,30.21,7.0,SE,3.5,-,0.02,Rain,Light Rain,130,2013-02-28 16:53:00
9:53 AM,46.9,43.0,86,30.20,9.0,SSE,9.2,-,0.02,Rain,Light Rain,160,2013-02-28 17:53:00
10:53 AM,46.9,44.1,90,30.22,10.0,SE,8.1,-,0.00,,Overcast,140,2013-02-28 18:53:00
11:33 AM,48.2,44.6,87,30.23,9.0,SE,6.9,-,N/A,,Overcast,130,2013-02-28 19:33:00
11:53 AM,48.0,45.0,89,30.23,5.0,SE,9.2,-,N/A,,Overcast,140,2013-02-28 19:53:00
12:53 PM,50.0,46.0,86,30.23,10.0,SE,9.2,-,N/A,,Overcast,130,2013-02-28 20:53:00
1:53 PM,52.0,48.0,86,30.23,10.0,SE,13.8,-,N/A,,Overcast,140,2013-02-28 21:53:00
2:53 PM,52.0,48.0,86,30.25,10.0,SE,9.2,-,N/A,,Overcast,130,2013-02-28 22:53:00
3:00 PM,51.8,48.2,88,30.25,10.0,SE,9.2,-,N/A,,Overcast,130,2013-02-28 23:00:00
3:53 PM,53.1,48.9,86,30.26,6.0,SE,8.1,-,0.02,Rain,Light Rain,130,2013-02-28 23:53:00
4:44 PM,53.6,50.0,88,30.27,10.0,South,12.7,-,N/A,Rain,Light Rain,170,2013-03-01 00:44:00
4:53 PM,54.0,50.0,86,30.27,10.0,South,10.4,-,0.01,,Overcast,170,2013-03-01 00:53:00
5:22 PM,53.6,50.0,88,30.26,10.0,SSE,11.5,-,N/A,,Overcast,150,2013-03-01 01:22:00
5:53 PM,53.1,50.0,89,30.26,7.0,SSE,10.4,-,N/A,,Overcast,160,2013-03-01 01:53:00
6:33 PM,53.6,48.2,82,30.27,10.0,SSE,13.8,-,N/A,,Overcast,160,2013-03-01 02:33:00
6:53 PM,54.0,48.9,83,30.28,10.0,South,10.4,-,N/A,,Overcast,170,2013-03-01 02:53:00
7:14 PM,53.6,50.0,88,30.28,10.0,SSE,9.2,-,N/A,,Overcast,160,2013-03-01 03:14:00
7:53 PM,54.0,48.9,83,30.29,10.0,South,10.4,-,N/A,,Overcast,170,2013-03-01 03:53:00
8:53 PM,53.1,48.9,86,30.30,10.0,South,11.5,-,N/A,,Overcast,170,2013-03-01 04:53:00
9:53 PM,54.0,48.9,83,30.32,10.0,SSW,5.8,-,0.00,Rain,Light Rain,200,2013-03-01 05:53:00
10:53 PM,53.1,48.9,86,30.32,10.0,South,8.1,-,0.01,Rain,Light Rain,170,2013-03-01 06:53:00
11:53 PM,53.1,48.9,86,30.31,10.0,SSE,8.1,-,0.02,Rain,Light Rain,150,2013-03-01 07:53:00